Location: Newark
(49.5647°N, 8.2922°E)
Time: 13:43:21
(UTC+00:00)

Transit 2A - Pass Details

Date: 25 February 2020
Orbit: 597 x 962 km, 66.7° (Epoch: 04 April)

Event Time Altitude Azimuth Distance (km) Brightness Sun altitude
Rises 20:55:04 0° 319° (NW) 3,098 10.1 -37.0°
Reaches altitude 10° 20:57:24 10° 313° (NW) 2,229 9.1 -37.3°
Enters shadow 20:59:31 24° 299° (WNW) 1,527 8.0 -37.6°
Maximum altitude 21:02:13 43° 242° (WSW) 1,086 - -37.9°
Drops below altitude 10° 21:07:29 10° 173° (S) 2,448 - -38.6°
Sets 21:10:10 0° 167° (SSE) 3,437 - -38.9°
